Agua de Enmedio, Mexico

1:50 PM MST on December 11, 2017 (GMT -0700)
Gen Manuel Marquez De Leon | | Change Station

Elev 69 ft 24.07 °N, 110.36 °W | Updated 1 hour ago

Mostly Cloudy
Mostly Cloudy
77 °F
Feels Like 77 °F
N
14
Wind Variable Wind from NNW

Today
High -- | Low -- °F
--% Chance of Precip.
Yesterday
High -- | Low -- °F
Precip. -- in
Pressure 30.09 in
Visibility 10.0 miles
Clouds Few 3000 ft
Mostly Cloudy 22000 ft
Dew Point 55 °F
Humidity 47%
Rainfall 0.00 in
Snow Depth Not available.
6:58 AM 5:37 PM
Waning Crescent, 34% visible
METAR MMLP 111943Z 34012KT 10SM FEW030 BKN220 25/13 A3009 RMK 8/408
Pressure 30.09 in
Visibility 10.0 miles
Clouds Few 3000 ft
Mostly Cloudy 22000 ft
Dew Point 55 °F
Humidity 47%
Rainfall 0.00 in
Snow Depth Not available.
6:58 AM 5:37 PM
Waning Crescent, 34% visible
METAR MMLP 111943Z 34012KT 10SM FEW030 BKN220 25/13 A3009 RMK 8/408

Get Severe Weather Alerts

Thanks for signing up!

Be on the lookout for a verification email in your inbox.

You'll start receiving the daily forecast at 6 AM.

×

10-Day Weather Forecast

No radar image for this location.
×

Almanac

Astronomy

Dec. 11, 2017 Rise Set
Actual Time
Civil Twilight
Nautical Twilight
Astronomical Twilight
Moon
Length of Visible Light
Length of Day
Tomorrow will be .
, % of the Moon is Illuminated

Today's Extremes

Country Highs Country Lows

Community

WunderPhotos

Category 6

Welcome to Category 6. This is the collective home for Weather Underground's featured writeups by Dr. Jeff Masters (right), Bob Henson (left), Chris Burt, and other regular contributors.

Nearby

Air Quality

  Air Quality AQ Index Pollutant
Not available.

Snow Depth

Station Depth Elevation

Earthquake Activity

City Distance Mag. Time & Date
Minimum magnitude displayed is 2.5.

Coastal Water Temperatures

Place Temperature

Stations

Nearby Weather Stations

Station Location Temp. Windchill Dew Point Humidity Wind Precip. Elev Updated Type